Total_Precipitation_Accumulation
0.61 0.90 1.52 1.74 1.62 1.12 0.66 0.44 0.36 0.40 0.37 0.26 0.14 0.12 0.24 0.42 0.62 0.82 0.83 0.71 0.52 0.42 0.34 0.42 0.53 0.46 0.41 0.42 0.47 0.53 0.55 0.57 0.61 0.64 0.65 0.42 0.29 0.26 0.24 0.25 0.26 0.26 0.21 0.23 0.30 0.35 0.34 0.28 0.32
0.61 1.34 1.96 2.17 1.57 0.76 0.56 0.47 0.47 0.43 0.27 0.18 0.09 0.09 0.18 0.17 0.15 0.44 0.92 0.99 0.56 0.49 0.47 0.52 0.66 0.59 0.49 0.49 0.57 0.65 0.70 0.74 0.80 0.78 0.63 0.40 0.33 0.33 0.32 0.34 0.35 0.29 0.22 0.21 0.23 0.28 0.29 0.26 0.31
0.79 1.52 1.90 1.95 0.97 0.61 0.60 0.59 0.56 0.37 0.20 0.15 0.11 0.08 0.13 0.20 0.28 0.50 0.89 0.73 0.50 0.52 0.57 0.72 0.81 0.71 0.64 0.61 0.67 0.78 0.87 0.85 0.87 0.82 0.59 0.46 0.42 0.42 0.41 0.45 0.38 0.29 0.25 0.22 0.21 0.23 0.23 0.23 0.23
0.99 1.60 1.71 1.25 0.78 0.57 0.56 0.60 0.42 0.28 0.15 0.09 0.07 0.09 0.14 0.24 0.36 0.48 0.63 0.64 0.52 0.48 0.49 0.62 0.77 0.70 0.67 0.71 0.78 0.79 0.74 0.76 0.83 0.76 0.60 0.48 0.51 0.50 0.49 0.43 0.35 0.32 0.31 0.28 0.25 0.24 0.22 0.21 0.20
1.28 1.74 1.51 1.01 0.74 0.65 0.46 0.40 0.29 0.27 0.19 0.10 0.06 0.13 0.20 0.31 0.43 0.55 0.68 0.67 0.58 0.54 0.47 0.55 0.65 0.62 0.63 0.72 0.81 0.83 0.74 0.77 0.82 0.79 0.71 0.53 0.52 0.54 0.54 0.45 0.37 0.35 0.36 0.34 0.31 0.28 0.24 0.21 0.20
1.45 1.66 1.52 1.10 0.75 0.68 0.52 0.35 0.24 0.21 0.16 0.14 0.13 0.18 0.25 0.34 0.46 0.61 0.66 0.70 0.68 0.62 0.57 0.54 0.62 0.61 0.60 0.65 0.73 0.78 0.77 0.85 0.84 0.73 0.67 0.62 0.54 0.53 0.51 0.46 0.44 0.41 0.40 0.39 0.36 0.31 0.28 0.26 0.26
1.51 1.56 1.32 0.87 0.74 0.80 0.60 0.34 0.24 0.20 0.16 0.15 0.16 0.22 0.30 0.39 0.43 0.50 0.55 0.64 0.70 0.70 0.67 0.62 0.62 0.63 0.66 0.74 0.75 0.78 0.85 0.96 0.94 0.75 0.69 0.69 0.57 0.49 0.46 0.45 0.46 0.44 0.45 0.47 0.41 0.33 0.28 0.30 0.31
0.99 1.23 1.31 1.10 0.90 0.96 0.58 0.33 0.18 0.12 0.10 0.09 0.11 0.18 0.28 0.38 0.37 0.52 0.60 0.66 0.69 0.66 0.64 0.58 0.59 0.63 0.68 0.77 0.82 0.83 0.83 0.92 0.91 0.80 0.78 0.78 0.62 0.51 0.50 0.46 0.48 0.50 0.52 0.56 0.50 0.41 0.34 0.32 0.33
0.90 1.09 1.38 1.32 0.86 0.72 0.42 0.35 0.16 0.09 0.09 0.09 0.08 0.10 0.19 0.23 0.28 0.43 0.57 0.59 0.62 0.61 0.62 0.59 0.57 0.61 0.67 0.76 0.79 0.89 0.91 0.95 0.88 0.81 0.85 0.76 0.56 0.52 0.53 0.47 0.56 0.64 0.73 0.71 0.62 0.54 0.43 0.36 0.32
0.97 1.12 1.15 0.91 0.55 0.43 0.45 0.41 0.18 0.15 0.15 0.12 0.11 0.14 0.25 0.33 0.39 0.50 0.56 0.61 0.61 0.63 0.65 0.63 0.66 0.64 0.64 0.69 0.93 1.10 0.98 0.89 0.78 0.80 0.78 0.75 0.72 0.69 0.51 0.52 0.65 0.69 0.75 0.75 0.67 0.62 0.48 0.32 0.22
0.76 0.85 0.70 0.57 0.40 0.33 0.34 0.29 0.20 0.20 0.20 0.16 0.17 0.20 0.28 0.41 0.46 0.49 0.54 0.61 0.65 0.64 0.66 0.61 0.59 0.54 0.55 0.69 0.87 1.06 1.11 1.07 1.04 0.90 0.89 0.85 0.76 0.65 0.50 0.47 0.51 0.56 0.61 0.58 0.61 0.57 0.39 0.30 0.26
0.68 0.58 0.54 0.49 0.34 0.34 0.32 0.25 0.22 0.20 0.20 0.18 0.21 0.24 0.28 0.36 0.44 0.49 0.53 0.55 0.54 0.55 0.58 0.55 0.53 0.51 0.49 0.50 0.61 0.76 0.83 0.82 0.84 0.85 0.79 0.80 0.81 0.74 0.63 0.57 0.60 0.62 0.59 0.62 0.66 0.60 0.48 0.39 0.33
0.73 0.57 0.42 0.36 0.33 0.35 0.31 0.26 0.22 0.20 0.18 0.18 0.24 0.30 0.34 0.38 0.42 0.44 0.45 0.48 0.48 0.49 0.52 0.55 0.58 0.55 0.61 0.60 0.57 0.56 0.62 0.67 0.72 0.79 0.72 0.67 0.69 0.72 0.74 0.67 0.71 0.67 0.66 0.67 0.66 0.52 0.48 0.46 0.36
0.63 0.49 0.43 0.38 0.39 0.38 0.34 0.28 0.23 0.22 0.19 0.20 0.25 0.32 0.38 0.41 0.41 0.41 0.40 0.38 0.38 0.46 0.57 0.62 0.58 0.61 0.60 0.56 0.59 0.62 0.62 0.65 0.68 0.73 0.66 0.60 0.60 0.62 0.72 0.71 0.75 0.66 0.68 0.75 0.68 0.60 0.58 0.53 0.42
0.43 0.46 0.50 0.44 0.46 0.44 0.38 0.37 0.24 0.24 0.22 0.24 0.28 0.34 0.39 0.41 0.42 0.43 0.42 0.38 0.37 0.43 0.57 0.68 0.66 0.69 0.65 0.60 0.63 0.66 0.65 0.62 0.65 0.69 0.62 0.57 0.61 0.62 0.73 0.76 0.74 0.71 0.74 0.76 0.79 0.79 0.72 0.60 0.48
0.52 0.60 0.73 0.55 0.51 0.46 0.40 0.41 0.29 0.31 0.28 0.27 0.27 0.30 0.33 0.36 0.38 0.39 0.40 0.39 0.37 0.40 0.51 0.63 0.65 0.70 0.73 0.72 0.72 0.69 0.65 0.66 0.71 0.74 0.70 0.65 0.64 0.67 0.86 0.90 0.78 0.83 0.92 0.93 0.94 0.90 0.81 0.70 0.61
0.63 0.71 0.71 0.59 0.46 0.41 0.40 0.38 0.29 0.29 0.28 0.26 0.23 0.22 0.23 0.26 0.31 0.34 0.35 0.35 0.36 0.40 0.47 0.52 0.58 0.78 0.81 0.77 0.83 0.83 0.80 0.86 0.89 0.91 0.89 0.83 0.80 0.88 1.05 1.11 1.02 0.99 1.13 1.08 0.96 0.95 0.95 0.83 0.79
0.51 0.43 0.42 0.42 0.33 0.33 0.36 0.29 0.26 0.27 0.24 0.23 0.21 0.19 0.18 0.20 0.24 0.26 0.25 0.26 0.28 0.34 0.39 0.46 0.55 0.67 0.79 0.94 1.02 1.10 1.11 1.11 1.23 1.30 1.28 1.11 1.07 1.12 1.26 1.36 1.32 1.27 1.37 1.35 1.20 1.25 1.24 1.11 1.12
0.35 0.25 0.25 0.27 0.23 0.25 0.27 0.24 0.22 0.22 0.22 0.19 0.17 0.15 0.14 0.13 0.14 0.14 0.13 0.17 0.20 0.25 0.31 0.37 0.54 0.70 0.86 0.98 1.12 1.38 1.54 1.64 1.62 1.63 1.70 1.62 1.43 1.51 1.62 1.58 1.78 1.84 1.81 1.80 1.72 1.80 1.80 1.52 1.34
0.28 0.24 0.23 0.22 0.19 0.17 0.16 0.15 0.13 0.13 0.16 0.16 0.15 0.14 0.12 0.09 0.07 0.06 0.07 0.09 0.12 0.16 0.22 0.30 0.44 0.67 0.92 1.14 1.33 1.52 1.84 1.99 1.99 2.05 2.00 1.95 1.84 1.84 1.76 1.83 2.03 2.07 2.16 2.25 2.08 2.16 2.20 1.88 1.58
0.22 0.19 0.19 0.17 0.17 0.15 0.11 0.10 0.10 0.11 0.12 0.12 0.11 0.11 0.10 0.08 0.07 0.06 0.05 0.06 0.07 0.09 0.14 0.21 0.34 0.57 0.88 1.19 1.44 1.64 1.87 2.14 2.23 2.14 2.09 2.12 2.20 2.23 2.12 2.08 2.19 2.19 2.25 2.40 2.43 2.37 2.39 2.27 1.97
0.25 0.17 0.15 0.15 0.17 0.15 0.12 0.16 0.15 0.15 0.16 0.14 0.13 0.13 0.12 0.11 0.10 0.09 0.06 0.06 0.07 0.10 0.13 0.17 0.32 0.48 0.72 0.99 1.31 1.57 1.83 2.15 2.22 2.20 2.17 2.20 2.32 2.41 2.35 2.29 2.35 2.35 2.28 2.35 2.43 2.42 2.57 2.69 2.39
0.18 0.12 0.12 0.13 0.14 0.12 0.10 0.16 0.18 0.17 0.20 0.20 0.20 0.21 0.18 0.15 0.15 0.12 0.10 0.10 0.12 0.15 0.18 0.24 0.38 0.53 0.74 0.98 1.30 1.62 1.82 1.99 2.19 2.20 2.11 2.04 2.09 2.11 2.09 2.20 2.34 2.34 2.30 2.28 2.43 2.55 2.71 2.65 2.55
0.13 0.11 0.09 0.08 0.08 0.08 0.06 0.14 0.23 0.23 0.22 0.20 0.22 0.22 0.17 0.14 0.15 0.17 0.21 0.22 0.22 0.24 0.30 0.38 0.50 0.71 0.87 0.97 1.12 1.29 1.50 1.78 1.92 2.02 2.05 2.06 2.03 1.90 1.84 1.92 2.02 2.10 2.14 2.13 2.15 2.28 2.42 2.57 2.68
0.08 0.11 0.13 0.12 0.14 0.12 0.10 0.20 0.31 0.27 0.22 0.21 0.22 0.20 0.19 0.21 0.25 0.33 0.43 0.40 0.37 0.40 0.49 0.56 0.63 0.73 0.79 0.78 0.86 1.00 1.16 1.37 1.51 1.61 1.80 1.86 1.89 1.82 1.76 1.72 1.80 1.87 1.90 2.00 2.16 2.12 2.13 2.29 2.45
0.05 0.07 0.14 0.16 0.18 0.21 0.26 0.40 0.44 0.35 0.28 0.24 0.21 0.19 0.21 0.29 0.39 0.54 0.65 0.70 0.64 0.62 0.64 0.62 0.63 0.60 0.62 0.66 0.73 0.80 0.86 1.00 1.12 1.20 1.36 1.49 1.48 1.44 1.41 1.44 1.54 1.70 1.79 1.88 1.98 2.00 1.97 2.02 2.08
0.04 0.04 0.07 0.15 0.15 0.21 0.34 0.51 0.51 0.35 0.29 0.27 0.26 0.23 0.29 0.42 0.57 0.73 0.86 0.93 0.87 0.78 0.72 0.68 0.68 0.65 0.58 0.60 0.68 0.75 0.79 0.81 0.84 0.88 0.88 0.97 1.05 1.07 1.10 1.14 1.26 1.45 1.59 1.65 1.71 1.82 1.85 1.88 1.87
0.04 0.05 0.10 0.22 0.33 0.36 0.39 0.52 0.60 0.49 0.38 0.36 0.38 0.44 0.55 0.73 0.80 0.91 0.98 0.97 0.96 1.00 0.93 0.77 0.71 0.71 0.66 0.73 0.75 0.72 0.70 0.69 0.67 0.71 0.76 0.78 0.86 0.96 1.05 1.06 1.11 1.20 1.30 1.42 1.56 1.66 1.73 1.73 1.67
0.09 0.13 0.20 0.32 0.42 0.56 0.68 0.82 0.69 0.57 0.56 0.54 0.56 0.72 0.82 0.92 1.00 1.02 1.08 1.01 0.89 0.89 0.87 0.84 0.79 0.73 0.75 0.80 0.80 0.70 0.67 0.67 0.67 0.65 0.67 0.75 0.84 0.94 0.99 1.04 1.07 1.09 1.18 1.23 1.33 1.44 1.55 1.53 1.51
0.23 0.35 0.45 0.61 0.65 0.63 0.86 1.06 0.78 0.64 0.65 0.66 0.65 0.63 0.65 0.83 0.94 0.98 1.04 0.97 0.81 0.77 0.68 0.71 0.79 0.79 0.85 0.86 0.79 0.71 0.71 0.74 0.79 0.77 0.69 0.71 0.77 0.79 0.90 1.02 1.00 1.00 1.06 1.14 1.23 1.32 1.35 1.38 1.31